This demonstration page uses our WeatherBlox Daily Observations layout. Learn more.

Left ArrowRight Arrow

Hourly Observations for February 23, 2018

Temp ( °F °C ) Dew Point ( °F °C ) Humidity (%) Winds ( mph kmh ) Pressure ( in mb ) Visibility ( mi km ) Precip ( " mm )
12:15 am 00:15 Cloudy 26 -3.3 22 -5.6 84 84 W 10 17 30.24 1024 10 16 0.00 0.00
12:53 am 00:53 Cloudy 25 -3.9 21 -6.1 85 85 W 8 13 30.24 1024 10 16 0.00 0.00
1:53 am 01:53 Cloudy 25 -3.9 21 -6.1 85 85 WNW 7 11 30.25 1024 10 16 0.00 0.00
2:39 am 02:39 Partly Cloudy 22 -5.6 19 -7.2 89 89 W 7 11 30.30 1026 10 16 0.00 0.00
2:53 am 02:53 Clear 23 -5 19 -7.2 85 85 W 7 11 30.27 1025 10 16 0.00 0.00
3:53 am 03:53 Clear 19 -7.2 16 -8.9 88 88 W 9 15 30.27 1025 10 16 0.00 0.00
4:53 am 04:53 Clear 20 -6.7 16 -8.9 85 85 W 12 19 30.27 1025 10 16 0.00 0.00
5:53 am 05:53 Clear 18 -7.8 14 -10 84 84 W 9 15 30.29 1026 10 16 0.00 0.00
6:53 am 06:53 Clear 18 -7.8 14 -10 84 84 WNW 9 15 30.28 1025 10 16 0.00 0.00
7:53 am 07:53 Sunny 18 -7.8 14 -10 84 84 NW 8 13 30.29 1026 10 16 0.00 0.00
8:53 am 08:53 Sunny 21 -6.1 16 -8.9 81 81 N 13 20 30.31 1026 10 16 0.00 0.00
9:53 am 09:53 Sunny 23 -5 18 -7.8 81 81 N 6 9 30.34 1028 10 16 0.00 0.00
10:53 am 10:53 Sunny 25 -3.9 20 -6.7 81 81 VRB 3 6 30.37 1028 10 16 0.00 0.00
11:25 am 11:25 Mostly Cloudy 27 -2.8 23 -5 85 85 ENE 5 7 30.42 1030 10 16 0.00 0.00
11:53 am 11:53 Mostly Cloudy 29 -1.7 24 -4.4 82 82 VRB 5 7 30.37 1028 10 16 0.00 0.00
12:53 pm 12:53 Cloudy 29 -1.7 22 -5.6 75 75 NNE 6 9 30.34 1028 10 16 0.00 0.00
1:53 pm 13:53 Cloudy 28 -2.2 22 -5.6 78 78 N 9 15 30.32 1027 10 16 0.00 0.00
2:53 pm 14:53 Cloudy 28 -2.2 22 -5.6 78 78 NE 9 15 30.31 1026 10 16 0.00 0.00
3:53 pm 15:53 Mostly Cloudy 28 -2.2 21 -6.1 75 75 ENE 8 13 30.30 1026 10 16 0.00 0.00
4:53 pm 16:53 Cloudy 27 -2.8 21 -6.1 78 78 NNE 10 17 30.29 1026 10 16 0.00 0.00
6:53 pm 18:53 Cloudy 25 -3.9 20 -6.7 81 81 ENE 10 17 30.28 1025 10 16 0.00 0.00
7:53 pm 19:53 Cloudy 25 -3.9 20 -6.7 81 81 ENE 13 20 30.28 1026 10 16 0.00 0.00
8:53 pm 20:53 Cloudy 24 -4.4 20 -6.7 84 84 ENE 12 19 30.27 1025 10 16 0.00 0.00
9:53 pm 21:53 Cloudy 23 -5 19 -7.2 85 85 ENE 12 19 30.27 1025 10 16 0.00 0.00
10:53 pm 22:53 Cloudy 23 -5 19 -7.2 85 85 E 12 19 30.24 1024 10 16 0.00 0.00
11:53 pm 23:53 Cloudy 22 -5.6 18 -7.8 85 85 E 9 15 30.21 1023 10 16 0.00 0.00

Powered by AerisWeather